Theta_e
316 312 311 307 299 296 293 297 299 300 301 304 303 302 302 302 299 298 313 323 331 336 340 350 350 354 354 354 354 353 353 352 352 353 352 352 351 350 348 345 344 343 341 341 338 337 337 337 337
312 312 307 299 293 290 293 296 298 300 303 303 302 303 303 302 306 310 316 324 333 337 344 349 348 352 354 354 353 353 353 353 352 351 352 351 350 349 346 343 342 340 339 339 337 335 332 332 333
312 306 303 295 290 289 292 297 298 300 302 302 302 305 304 305 309 312 317 326 335 338 345 348 347 352 354 354 353 353 353 353 352 351 350 350 349 347 345 342 340 339 339 337 335 333 329 327 328
308 304 298 293 293 295 296 296 298 300 301 302 302 302 304 310 310 315 320 331 335 339 345 345 347 351 353 353 353 352 352 352 352 351 349 348 348 346 344 342 339 338 336 335 333 330 327 324 324
301 299 293 292 294 295 295 298 298 299 300 301 302 302 303 308 316 321 324 332 334 338 342 345 346 349 350 352 352 351 350 350 350 350 350 347 345 344 342 341 338 336 335 333 331 328 324 322 322
299 296 291 289 292 295 296 297 298 298 298 300 301 301 304 306 312 319 325 329 332 336 339 343 339 343 346 349 350 350 350 349 348 348 348 348 345 342 340 337 336 335 334 330 330 326 323 320 321
296 291 289 290 291 294 297 297 297 297 297 300 302 300 305 305 307 317 321 322 330 334 337 339 342 342 336 341 343 345 347 346 346 346 346 345 343 342 339 337 336 335 332 329 328 325 322 319 317
296 293 290 290 290 293 297 298 298 298 299 301 303 298 301 302 309 317 319 319 321 327 333 335 339 341 345 347 335 338 341 342 343 341 338 335 335 336 335 331 334 334 331 329 327 324 322 318 314
298 289 286 289 290 293 297 297 299 299 298 299 300 300 298 300 306 308 309 307 310 309 314 325 334 339 341 344 340 333 335 337 337 337 331 331 338 336 332 328 331 334 332 329 327 324 321 313 305
293 288 289 292 293 294 296 296 297 298 296 298 299 299 298 298 298 297 297 298 299 300 301 306 315 333 338 340 341 340 341 343 342 342 339 337 335 334 330 324 327 330 328 328 326 324 316 307 300
294 290 291 294 295 297 296 296 297 296 295 298 298 296 296 296 296 295 296 296 296 297 300 301 302 313 335 337 339 339 338 337 339 339 338 336 333 332 327 326 326 326 321 321 320 319 315 310 304
293 296 295 298 298 296 295 297 296 296 297 296 295 295 294 293 293 293 293 295 295 296 298 300 301 304 323 336 337 338 337 337 335 336 334 332 329 327 326 324 324 323 321 319 318 315 314 311 305
295 295 296 297 296 295 295 295 295 295 293 295 294 293 292 291 292 293 293 294 295 295 297 299 301 306 311 332 335 335 335 335 335 333 331 331 329 326 324 323 322 321 320 319 317 314 313 312 307
293 294 294 295 295 295 294 293 294 293 294 293 292 290 290 290 290 291 292 292 293 294 296 298 303 312 313 327 331 331 331 331 331 330 330 328 328 329 325 323 320 320 318 317 315 313 313 310 306
293 291 292 293 293 293 294 291 292 292 293 291 289 289 289 289 290 289 290 291 292 293 295 298 304 317 321 324 326 326 325 324 323 324 324 325 325 325 324 322 321 319 317 314 311 308 306 305 303
290 289 288 292 292 292 293 290 291 292 292 289 288 287 288 288 288 289 289 290 291 292 294 298 304 316 317 315 313 311 309 309 309 310 312 314 318 321 320 318 316 315 313 311 309 307 306 305 301
286 285 285 289 292 292 291 290 289 291 289 287 286 286 287 287 288 288 289 289 290 291 293 296 300 307 307 306 305 304 303 302 302 302 304 306 309 313 312 311 310 312 310 308 307 304 301 302 301
284 284 284 286 289 290 289 290 288 288 287 285 285 285 286 286 286 288 288 289 289 290 292 295 297 299 304 303 303 301 299 298 297 297 297 299 302 306 306 306 306 307 306 304 304 302 300 298 296
286 285 285 287 290 289 289 289 289 287 286 285 285 285 285 285 287 287 287 288 288 289 290 292 293 294 298 298 299 297 295 294 292 292 293 295 296 298 300 300 301 302 301 300 300 300 299 299 297
286 284 284 287 289 289 288 288 287 286 285 286 285 285 285 285 286 286 286 286 286 286 288 290 291 292 294 295 295 294 292 290 289 289 289 289 291 292 294 295 295 297 298 297 297 297 298 298 296
284 284 284 286 287 287 285 285 284 284 285 285 286 286 285 285 284 284 284 284 285 284 285 286 287 288 289 292 293 291 290 288 287 286 286 287 288 288 289 289 291 291 292 292 294 295 295 294 297
283 288 287 286 285 282 284 280 284 283 283 284 284 284 284 284 284 284 283 283 283 283 284 285 286 286 286 288 287 286 285 283 284 284 285 286 287 286 287 287 288 288 288 288 290 291 292 294 292
287 289 287 286 283 281 282 280 283 283 281 282 283 284 284 284 283 282 282 283 283 283 283 284 285 285 285 285 285 284 283 284 284 284 285 285 285 286 286 286 286 286 286 287 287 287 287 289 289
288 286 285 282 282 277 283 283 282 281 283 283 284 284 284 284 283 282 283 282 282 282 283 283 283 283 284 284 284 283 283 283 283 283 283 284 284 284 284 285 285 285 285 285 286 286 285 286 286
287 285 279 277 276 278 280 279 283 285 285 285 284 284 284 284 283 282 281 281 281 281 282 282 283 282 283 283 283 283 282 283 282 282 282 282 283 283 283 283 283 283 284 284 284 284 284 284 284
285 285 280 274 274 276 281 278 284 285 285 285 286 286 284 283 283 282 282 281 281 281 281 281 281 281 282 283 282 283 283 283 282 282 282 282 282 282 282 282 282 282 282 282 282 282 282 282 282
284 283 285 278 275 275 280 282 285 284 282 282 283 283 283 283 283 283 282 281 280 280 281 281 281 281 281 281 281 281 282 282 281 281 281 281 281 282 281 281 281 281 281 281 280 280 280 281 281
286 287 281 280 272 270 277 278 280 282 282 281 281 283 283 283 283 283 282 281 280 280 280 281 281 281 281 281 281 281 281 281 281 281 280 280 280 280 280 280 280 280 280 280 279 279 279 279 279
284 283 282 283 278 272 270 276 283 284 284 281 282 284 284 283 283 283 283 282 281 280 280 280 280 280 281 281 281 281 280 280 280 280 280 279 280 279 279 279 279 278 278 278 278 278 278 278 278
284 284 283 281 276 276 276 278 284 284 284 284 283 284 284 284 284 283 283 282 281 280 279 279 280 280 281 281 281 281 281 280 280 279 279 279 279 278 278 278 277 277 277 277 276 276 277 276 276
Wind_Speed
4 3 2 5 5 5 1 1 1 1 0 1 3 2 3 2 3 2 1 6 1 9 11 10 9 14 14 11 11 9 10 11 12 11 11 11 12 11 12 12 12 12 11 12 11 11 12 11 10
2 1 5 3 6 4 3 3 2 1 0 2 2 1 1 0 1 3 2 5 3 9 11 10 9 12 14 12 12 10 10 10 11 11 11 11 11 12 11 11 11 10 10 10 10 11 12 11 10
3 4 4 5 4 4 3 3 2 2 1 1 1 1 2 2 2 1 3 7 4 7 8 7 7 9 12 12 12 11 10 10 11 11 9 10 9 10 11 10 10 9 10 9 9 10 11 10 9
2 4 5 5 3 2 1 2 2 3 2 2 0 2 2 1 2 3 2 7 6 7 8 9 10 9 12 12 11 11 10 10 10 10 10 11 13 11 10 9 8 8 7 8 9 10 10 10 9
4 3 5 4 1 2 3 3 2 1 1 1 1 1 1 3 4 3 3 4 6 6 6 7 9 9 10 14 15 12 10 9 9 9 9 12 13 10 8 6 6 6 5 6 7 9 9 10 9
5 3 5 2 2 3 3 2 2 1 1 1 2 1 2 3 4 4 3 1 2 3 3 4 5 5 6 10 12 13 11 9 8 8 11 13 14 12 7 5 2 1 6 4 6 8 9 9 9
7 5 4 4 2 2 3 3 3 1 3 2 2 2 1 4 7 3 5 5 5 3 3 3 5 6 5 4 7 9 11 9 7 7 10 10 12 12 7 4 3 3 5 3 5 7 7 8 9
5 5 4 2 3 3 1 1 1 2 1 5 1 2 1 4 8 5 6 6 6 4 3 2 3 5 5 5 4 8 9 9 8 6 5 4 6 11 8 5 4 5 4 3 6 6 7 9 9
3 5 2 4 6 2 2 4 1 1 1 3 2 4 6 10 9 9 6 8 8 9 9 7 4 5 4 5 4 4 4 6 6 3 6 8 6 7 8 6 5 4 6 5 5 5 8 8 8
5 4 7 4 4 3 1 1 3 3 5 3 2 7 12 12 13 13 11 10 11 13 13 9 8 6 5 3 3 3 3 2 2 3 5 5 5 5 5 3 7 7 6 5 4 7 8 6 3
2 4 4 3 4 3 3 1 2 1 2 2 3 4 10 12 13 12 10 8 9 11 8 11 10 9 6 4 3 2 2 2 3 4 5 5 4 4 3 2 2 3 5 2 3 3 3 4 3
1 3 4 2 2 2 2 3 2 4 2 6 8 7 5 13 12 11 11 11 12 11 11 12 11 8 8 3 3 3 3 3 3 3 3 1 3 3 3 2 3 3 2 3 3 2 2 3 3
2 2 3 2 4 4 2 3 3 4 8 8 10 12 12 10 10 9 9 8 10 11 12 12 11 8 6 3 2 2 2 2 1 2 3 3 4 4 4 3 3 2 2 3 3 2 2 2 3
2 2 5 5 3 3 4 2 3 2 5 10 11 11 11 12 11 9 12 12 12 11 12 13 12 8 3 2 4 3 3 4 3 3 3 1 1 3 4 5 4 3 1 1 1 1 1 2 2
2 4 6 3 1 4 7 2 4 3 7 9 9 8 9 9 10 11 10 9 12 11 12 12 10 8 8 7 6 6 7 8 8 7 9 7 4 2 1 1 1 1 1 3 2 3 2 1 2
2 4 3 1 2 2 3 3 3 6 6 6 6 6 7 10 9 9 10 10 12 12 13 11 9 11 14 14 11 10 10 9 9 9 9 13 11 9 6 4 5 3 3 3 3 3 3 3 3
5 3 4 8 2 1 2 5 4 5 7 7 6 6 7 8 11 11 10 9 9 10 11 12 12 13 14 14 12 12 12 10 8 9 8 12 13 12 9 7 6 6 5 5 4 3 3 2 2
7 5 4 5 1 2 2 8 5 5 9 7 5 5 7 8 9 8 10 10 10 10 11 11 9 10 11 10 10 9 10 10 9 9 10 12 10 11 9 8 8 7 6 6 4 4 2 2 3
6 4 4 2 3 1 6 6 2 4 6 6 4 4 6 6 4 7 7 8 8 11 13 13 12 12 7 6 6 7 9 9 10 10 14 14 11 11 10 8 8 7 8 7 6 2 4 3 3
4 4 6 4 2 5 3 8 1 2 2 3 6 5 5 4 6 8 11 11 12 11 10 10 12 12 10 5 5 6 7 9 9 9 12 14 14 13 12 11 10 10 7 10 10 8 3 3 6
5 7 5 7 0 2 2 6 4 2 3 4 2 2 3 4 6 5 8 9 8 11 11 11 11 12 10 7 8 7 6 6 8 9 10 12 13 13 14 13 11 11 9 9 9 9 9 5 5
6 9 7 5 4 5 1 6 4 5 5 4 5 5 4 3 3 3 4 5 7 8 8 9 11 12 11 9 11 14 10 10 6 8 8 9 12 14 13 13 12 11 8 11 9 9 9 5 7
7 7 7 3 4 1 2 1 6 4 7 8 9 8 6 5 4 4 4 5 6 6 6 6 10 12 11 11 12 11 13 8 7 7 10 10 10 12 12 12 11 11 9 10 11 10 11 8 7
10 8 7 5 3 2 7 7 4 6 6 8 7 7 8 7 5 4 3 4 5 5 6 6 11 11 9 10 11 12 12 9 8 8 7 7 7 7 11 10 10 10 9 10 8 8 10 8 7
1 7 2 2 1 7 0 3 8 5 6 11 17 14 10 7 6 5 4 4 4 6 5 5 8 9 8 11 11 11 11 11 11 8 7 7 6 7 9 9 10 8 9 9 8 8 8 8 6
7 7 7 9 5 3 0 7 7 3 1 2 9 13 11 10 8 7 6 5 5 5 5 5 7 9 7 9 9 8 9 7 7 7 6 6 6 6 7 7 8 9 9 8 8 6 5 6 6
7 6 3 8 3 2 5 5 3 2 2 3 10 13 13 11 10 10 7 7 6 6 6 7 7 7 7 7 7 8 7 8 8 8 7 5 5 5 6 7 7 8 8 8 8 6 7 6 7
5 8 4 2 3 6 4 4 6 6 8 6 10 16 14 11 10 8 9 8 6 6 6 7 6 7 6 7 5 7 7 7 6 6 7 6 5 6 6 7 6 6 6 6 7 6 6 6 6
4 4 4 5 5 7 2 6 6 7 10 15 14 15 14 13 12 12 10 8 8 6 6 6 6 8 7 6 6 6 6 6 6 6 6 5 5 5 5 6 6 6 7 7 7 7 8 9 9
2 8 8 7 6 3 3 7 2 5 7 12 14 14 11 11 12 11 10 9 9 9 7 9 7 8 7 7 6 6 6 5 5 5 5 4 5 5 5 6 6 6 7 7 8 9 9 10 11
Wind_Direction
7 16 69 43 62 65 29 201 271 255 298 219 114 143 153 170 156 171 218 191 248 166 172 184 175 148 146 152 144 141 137 133 128 127 124 120 115 106 95 88 82 73 65 61 54 53 49 46 43
6 55 47 80 82 70 281 265 217 226 222 109 121 84 75 244 259 306 54 168 177 158 169 175 173 153 150 157 150 152 147 142 136 128 118 116 115 109 100 95 86 77 70 59 49 48 47 38 32
114 40 78 86 103 148 180 239 258 300 294 124 102 91 162 354 13 353 0 161 127 154 164 170 172 172 164 162 159 156 155 153 145 139 131 125 119 114 112 110 97 81 68 52 45 41 38 36 25
56 18 49 77 114 199 142 296 240 336 28 38 153 73 312 293 330 318 335 141 140 161 168 173 177 189 172 164 161 163 163 160 155 149 150 137 101 104 106 111 101 93 79 54 43 34 32 29 26
36 55 59 79 291 248 254 272 296 53 34 310 328 328 19 21 346 31 111 141 144 164 177 185 187 196 193 174 164 170 177 176 171 164 165 138 131 119 115 112 111 96 66 47 48 40 34 31 30
46 85 67 164 243 283 270 285 276 70 179 276 77 101 52 339 11 358 48 72 85 149 166 181 199 211 230 184 177 169 174 182 180 175 168 155 139 131 137 125 104 109 71 39 49 44 37 38 36
104 80 170 167 210 280 204 337 139 142 315 39 164 78 167 9 340 16 51 42 39 66 140 183 202 218 261 249 187 181 173 183 193 196 187 170 141 137 136 113 76 59 81 32 67 56 46 43 39
102 91 119 224 192 214 1 47 159 71 255 317 335 55 332 357 338 39 56 48 44 36 25 314 230 219 217 239 213 197 180 184 188 206 217 139 115 125 133 112 73 58 69 48 72 53 46 46 36
125 63 163 201 165 184 355 46 282 325 349 11 349 72 1 347 7 31 15 13 8 9 4 343 289 237 215 214 223 238 230 194 199 199 153 134 142 143 148 141 110 63 72 75 93 70 75 54 37
81 107 213 196 197 153 122 144 286 52 4 355 351 56 22 27 38 44 31 11 359 348 343 350 331 255 217 202 188 196 177 221 201 177 155 156 152 159 155 138 128 99 85 56 90 83 71 55 39
149 176 198 238 218 177 155 255 233 13 80 232 323 38 21 29 36 37 25 14 345 328 331 339 333 313 239 203 167 161 149 148 186 193 178 174 167 155 133 140 128 119 111 101 90 83 51 41 26
116 211 188 267 157 147 205 139 258 190 83 62 75 78 49 35 32 23 11 358 349 341 332 330 330 313 278 202 170 161 160 162 166 193 231 173 139 155 159 158 146 141 150 145 144 135 102 55 38
159 276 174 285 280 259 37 225 234 0 86 79 67 52 45 39 26 17 1 354 348 349 337 334 326 319 268 220 138 129 128 140 146 145 168 173 172 174 152 160 169 178 172 177 160 161 136 66 7
198 284 284 277 232 237 202 122 139 97 109 64 62 52 39 34 18 13 12 359 359 345 344 338 338 333 205 173 86 80 60 50 38 32 9 167 182 193 181 170 166 196 172 128 111 105 358 74 23
109 320 321 257 277 225 158 109 87 98 88 69 54 49 45 35 27 21 1 357 350 342 336 359 354 8 97 88 72 56 53 50 43 35 32 23 29 359 21 132 182 15 126 98 92 81 86 36 352
58 52 358 281 168 328 169 223 189 325 106 77 58 42 44 38 29 16 8 4 355 351 352 0 19 53 66 71 68 64 58 57 48 39 34 30 33 34 42 43 45 43 52 63 58 42 25 355 360
5 230 209 316 35 125 144 249 89 9 104 89 62 48 48 39 28 14 9 6 0 358 2 20 27 54 74 79 80 74 68 61 51 47 41 38 38 47 48 48 38 45 61 60 57 64 61 349 358
194 210 234 236 267 130 195 265 115 62 90 84 76 67 60 51 27 9 12 8 6 7 17 31 39 43 75 83 84 79 70 61 53 45 42 40 41 45 57 51 45 44 59 46 51 54 43 40 340
136 170 214 232 248 185 233 252 35 76 77 102 100 96 85 64 8 22 25 21 27 34 34 31 42 24 37 58 74 68 68 59 54 46 43 45 42 44 46 52 49 50 56 42 27 24 42 42 337
151 162 233 274 226 175 259 255 110 72 124 162 154 131 104 87 43 25 18 22 26 29 35 47 52 50 46 41 71 79 85 64 57 48 44 41 44 46 54 53 46 42 49 41 34 33 8 35 12
202 190 199 213 30 211 305 274 205 66 104 115 123 122 114 118 100 53 38 28 26 36 21 36 46 52 45 65 99 93 82 72 58 47 50 37 41 41 44 51 55 55 51 51 46 41 43 29 18
205 200 176 163 120 232 101 274 252 176 166 189 182 171 174 154 102 77 64 59 45 37 26 51 58 61 55 62 77 82 91 93 74 69 57 49 42 46 45 46 46 49 47 45 42 37 39 47 36
227 131 149 132 140 78 243 260 260 132 217 197 201 190 195 188 152 132 108 77 54 48 43 47 71 69 68 74 82 90 94 93 91 76 72 55 49 45 41 45 50 46 42 42 39 36 39 42 45
151 83 55 58 87 263 219 188 254 199 208 179 188 192 191 183 174 171 126 106 93 75 66 58 77 68 68 78 82 93 101 101 93 79 71 60 52 47 41 41 48 48 44 36 34 36 39 31 38
171 110 89 8 317 231 327 164 247 191 178 179 181 189 187 176 175 184 171 150 128 109 94 89 93 88 88 90 89 95 97 95 91 86 82 73 56 45 36 38 40 41 39 34 28 29 29 25 23
189 169 163 194 200 226 35 224 255 131 128 263 176 172 172 180 183 188 188 178 159 144 125 114 110 105 92 95 94 91 96 98 91 89 87 76 75 62 44 44 43 39 35 32 26 19 14 7 2
188 199 155 102 52 49 216 289 255 148 142 150 167 167 186 183 185 192 189 184 167 158 159 147 133 121 108 113 117 105 104 104 106 96 88 82 71 66 51 44 40 32 26 20 10 7 353 349 344
169 158 92 10 172 246 244 253 236 211 203 180 181 188 192 184 181 187 192 190 180 176 163 164 154 133 141 141 131 118 113 105 105 103 94 87 81 64 48 35 27 22 17 9 358 347 334 326 329
155 172 62 122 143 178 250 252 215 214 179 188 197 190 189 191 189 192 192 190 182 174 173 167 157 153 161 151 138 131 132 129 120 109 104 97 87 67 52 30 21 10 4 356 344 334 323 321 318
179 185 167 166 207 244 162 253 104 263 206 176 188 193 195 194 193 191 187 180 184 186 180 179 174 172 174 169 157 149 145 143 121 108 103 95 76 52 38 22 11 5 355 343 337 327 323 319 317